Regional Weather Roundup
Issued by NWS Cleveland, OH

Home | Current Version | Previous Version | Graphics & Text | Print | Product List | Glossary On
Versions: 1 2 3 4 5 6 7 8 9 10 11 12 13 14 15 16 17 18 19 20 21 22 23 24 25 26 27 28 29 30 31 32 33 34 35 36 37 38 39 40 41 42 43 44 45 46 47 48 49 50
000
ASUS41 KCLE 231602
RWRCLE
OHIO REGIONAL WEATHER ROUNDUP
NATIONAL WEATHER SERVICE CLEVELAND, OH
1100 AM EST THU NOV 23 2017

NOTE: "FAIR" INDICATES FEW OR NO CLOUDS BELOW 12,000 FEET WITH NO
SIGNIFICANT WEATHER AND/OR OBSTRUCTIONS TO VISIBILITY.

OHZ001>008-015>018-024>027-034-035-043-044-231700-
   NORTHWEST OHIO

CITY           SKY/WX    TMP DP  RH WIND       PRES   REMARKS
DEFIANCE       CLOUDY    34  25  69 SW9       30.10F WCI  27
FINDLAY        CLOUDY    37  25  61 SW10      30.10F
TOLEDO EXPRESS CLOUDY    35  27  72 SW9       30.09F WCI  28
TOLEDO EXEC    CLOUDY    35  26  69 SW12      30.11F WCI  27
LIMA           CLOUDY    36  26  67 SW9       30.10F
$$

OHZ009>014-019>023-028>033-038-089-231700-
   NORTHEAST OHIO

CITY           SKY/WX    TMP DP  RH WIND       PRES   REMARKS
CLE-HOPKINS    PTSUNNY   36  24  62 S9        30.14F
CLE-LAKEFRONT  PTSUNNY   37  22  54 SW9       30.12F
CUY CO. ARPT   MOSUNNY   36  25  64 SW7       30.12F
LORAIN-ELYRIA  CLOUDY    35  21  56 SW10      30.12F WCI  27
ASHTABULA      CLOUDY    33  22  63 S9        30.11F WCI  25
AKRON-CANTON   PTSUNNY   34  22  61 VRB6      30.12F WCI  29
WOOSTER        MOSUNNY   32  23  69 SW8       30.12F WCI  25
MANSFIELD      CLOUDY    34  23  64 SW8       30.11F WCI  27
YOUNGSTOWN     CLOUDY    35  23  61 SW6       30.11F
$$

OHZ042-051>053-060>062-070>072-077>081-231700-
  SOUTHWEST OHIO

CITY           SKY/WX    TMP DP  RH WIND       PRES   REMARKS
CINC-COVINGTON MOSUNNY   37  28  70 S8        30.13F
CINC-LUNKEN    CLOUDY    36  29  75 S7        30.17F
HAMILTON       CLOUDY    37  27  67 S5        30.16F
DAYTON         MOSUNNY   35  27  72 SW8       30.13F WCI  29
WRIGHT-PAT AFB SUNNY     36  25  66 SW7       30.13F
DAYTON GENERAL MOSUNNY   35  26  69 SW7       30.13F WCI  29
WILMINGTON     CLOUDY    34  27  75 S7        30.13F WCI  28
$$

OHZ036-037-039>041-045>050-054>059-063>069-073>076-082>088-231700-
  CENTRAL AND SOUTHEAST OHIO

CITY           SKY/WX    TMP DP  RH WIND       PRES   REMARKS
COLUMBUS       PTSUNNY   34  24  67 CALM      30.15F
OSU AIRPORT    MOSUNNY   35  26  69 S6        30.14F
BOLTON FIELD   PTSUNNY   34  27  75 SW6       30.15F WCI  29
RICKENBACK AFB SUNNY     32  26  78 SW3       30.16S
NEWARK         CLOUDY    35  24  64 VRB3      30.14F
MARION         SUNNY     34  24  67 SW10      30.13F WCI  26
LANCASTER      CLOUDY    34  27  75 CALM      30.15F
ZANESVILLE     CLOUDY    33  24  69 CALM      30.15F
NEW PHILLY     NOT AVBL
$$




USA.gov is the U.S. government's official web portal to all federal, state and local government web resources and services.